sat.trackr.live / text

‹ back to catalog

COSMOS 2506

NORAD 40699 · 2015-029A

PAYLOAD ACTIVE UNKNOWN

§ Identity

Operator
Country
CIS
Launch date
2015-06-23
Launch site
PLMSC
Launch vehicle
Mass (kg)
RCS (m²)
14.20

External: N2YO · Heavens-Above · Gunter

§ Orbital elements

Epoch: 2026-09-20T04:18:33.645312Z

Period
99.01 min
Inclination
98.0390°
Eccentricity
0.0006294
Mean motion
14.54411498 rev/d
Perigee alt
706.8 km
Apogee alt
715.7 km
Semi-major
7,089.4 km
B*
1.9368e-5
RAAN
300.3726°
Arg perigee
212.4109°
Mean anomaly
147.6703°
Rev number
59,669

§ Raw data

COSMOS 25061 40699U 15029A   26263.17955608  .00000039  00000+0  19368-4 0  99972 40699  98.0390 300.3726 0006294 212.4109 147.6703 14.54411498596694

JSON: /api/v1/satellites/40699 · /tle

For live sub-satellite position, see the globe view (requires WebGL).

§ Visibility from observer

Set your observer location to see the next 7 days of passes ≥ 10°. The values pass through the URL so the page stays shareable.

No JS? Fill the form by hand. The geolocation button needs JavaScript.